H1 CPF 2 NER 2025 11 18 9 322 01 glonass142 H2 2001801 9142 45358 2025 11 18 0 0 0 2025 11 21 23 45 0 900 1 1 0 0 0 1 H9 10 0 60997 0.00000 0 -9966735.032 -17151824.820 -16025778.542 10 0 60997 900.00000 0 -10368225.563 -18940194.824 -13575591.023 10 0 60997 1800.00000 0 -10825101.236 -20385135.080 -10861615.973 10 0 60997 2700.00000 0 -11283697.090 -21461142.781 -7936665.810 10 0 60997 3600.00000 0 -11687820.659 -22155543.639 -4857611.129 10 0 60997 4500.00000 0 -11981310.259 -22468837.698 -1684270.981 10 0 60997 5400.00000 0 -12110601.026 -22414508.171 1521751.174 10 0 60997 6300.00000 0 -12027190.129 -22018303.158 4698262.939 10 0 60997 7200.00000 0 -11689897.061 -21317022.116 7783686.470 10 0 60997 8100.00000 0 -11066823.812 -20356859.469 10718246.734 10 0 60997 9000.00000 0 -10136932.521 -19191375.932 13445121.877 10 0 60997 9900.00000 0 -8891174.418 -17879183.326 15911533.933 10 0 60997 10800.00000 0 -7333122.591 -16481440.136 18069759.669 10 0 60997 11700.00000 0 -5479081.819 -15059262.441 19878043.025 10 0 60997 12600.00000 0 -3357670.266 -13671157.986 21301392.641 10 0 60997 13500.00000 0 -1008889.527 -12370589.753 22312250.188 10 0 60997 14400.00000 0 1517279.579 -11203769.769 22891017.655 10 0 60997 15300.00000 0 4162698.682 -10207774.230 23026434.146 10 0 60997 16200.00000 0 6863237.247 -9409057.654 22715795.389 10 0 60997 17100.00000 0 9551193.816 -8822427.393 21965011.755 10 0 60997 18000.00000 0 12157874.580 -8450520.961 20788503.275 10 0 60997 18900.00000 0 14616224.170 -8283807.960 19208932.894 10 0 60997 19800.00000 0 16863400.930 -8301116.868 17256781.956 10 0 60997 20700.00000 0 18843190.762 -8470665.142 14969774.769 10 0 60997 21600.00000 0 20508159.769 -8751550.157 12392161.918 10 0 60997 22500.00000 0 21821456.149 -9095639.028 9573874.760 10 0 60997 23400.00000 0 22758185.867 -9449778.316 6569566.306 10 0 60997 24300.00000 0 23306303.998 -9758230.752 3437556.194 10 0 60997 25200.00000 0 23466983.645 -9965235.967 238699.718 10 0 60997 26100.00000 0 23254446.112 -10017586.415 -2964797.118 10 0 60997 27000.00000 0 22695258.798 -9867108.482 -6110593.098 10 0 60997 27900.00000 0 21827129.843 -9472942.321 -9137433.500 10 0 60997 28800.00000 0 20697250.114 -8803522.119 -11986353.118 10 0 60997 29700.00000 0 19360252.562 -7838171.039 -14601836.047 10 0 60997 30600.00000 0 17875875.392 -6568241.340 -16932908.453 10 0 60997 31500.00000 0 16306428.260 -4997749.532 -18934141.885 10 0 60997 32400.00000 0 14714169.078 -3143478.008 -20566546.695 10 0 60997 33300.00000 0 13158702.730 -1034537.313 -21798337.515 10 0 60997 34200.00000 0 11694511.906 1288593.705 -22605555.457 10 0 60997 35100.00000 0 10368724.387 3775510.439 -22972534.861 10 0 60997 36000.00000 0 9219210.765 6367747.899 -22892205.619 10 0 60997 36900.00000 0 8273092.284 9000991.088 -22366225.530 10 0 60997 37800.00000 0 7545720.832 11607538.153 -21404940.611 10 0 60997 38700.00000 0 7040172.840 14118913.474 -20027174.668 10 0 60997 39600.00000 0 6747277.021 16468521.657 -18259852.876 10 0 60997 40500.00000 0 6646173.100 18594231.830 -16137467.313 10 0 60997 41400.00000 0 6705376.288 20440784.766 -13701395.471 10 0 60997 42300.00000 0 6884300.874 21961922.871 -10999085.675 10 0 60997 43200.00000 0 7135177.033 23122154.951 -8083125.850 10 0 60997 44100.00000 0 7405278.507 23898083.161 -5010214.345 10 0 60997 45000.00000 0 7639365.882 24279237.943 -1840053.385 10 0 60997 45900.00000 0 7782241.392 24268387.643 1365812.882 10 0 60997 46800.00000 0 7781306.779 23881311.427 4545192.866 10 0 60997 47700.00000 0 7589015.880 23146046.629 7636451.175 10 0 60997 48600.00000 0 7165118.445 22101643.492 10579698.135 10 0 60997 49500.00000 0 6478600.646 20796480.633 13317942.489 10 0 60997 50400.00000 0 5509240.725 19286212.531 15798185.488 10 0 60997 51300.00000 0 4248714.442 17631435.312 17972436.050 10 0 60997 52200.00000 0 2701203.771 15895168.292 19798628.394 10 0 60997 53100.00000 0 883482.915 14140256.016 21241425.489 10 0 60997 54000.00000 0 -1175522.742 12426798.350 22272893.970 10 0 60997 54900.00000 0 -3435687.549 10809714.693 22873038.509 10 0 60997 55800.00000 0 -5847108.260 9336542.665 23030186.104 10 0 60997 56700.00000 0 -8351941.136 8045561.776 22741213.330 10 0 60997 57600.00000 0 -10886579.103 6964319.258 22011612.251 10 0 60997 58500.00000 0 -13384080.576 6108618.744 20855393.336 10 0 60997 59400.00000 0 -15776750.990 5482013.511 19294826.483 10 0 60997 60300.00000 0 -17998771.424 5075825.353 17360024.042 10 0 60997 61200.00000 0 -19988766.278 4869688.453 15088372.513 10 0 60997 62100.00000 0 -21692203.898 4832595.856 12523822.495 10 0 60997 63000.00000 0 -23063530.360 4924405.094 9716049.149 10 0 60997 63900.00000 0 -24067947.080 5097740.085 6719498.262 10 0 60997 64800.00000 0 -24682757.309 5300209.423 3592335.512 10 0 60997 65700.00000 0 -24898224.186 5476847.413 395318.751 10 0 60997 66600.00000 0 -24717903.297 5572674.252 -2809384.780 10 0 60997 67500.00000 0 -24158434.742 5535266.203 -5959412.974 10 0 60997 68400.00000 0 -23248802.600 5317225.687 -8993430.780 10 0 60997 69300.00000 0 -22029092.345 4878445.112 -11852334.663 10 0 60997 70200.00000 0 -20548798.306 4188066.693 -14480415.022 10 0 60997 71100.00000 0 -18864752.498 3226053.401 -16826452.713 10 0 60997 72000.00000 0 -17038762.443 1984302.600 -18844727.197 10 0 60997 72900.00000 0 -15135057.972 467253.531 -20495915.743 10 0 60997 73800.00000 0 -13217655.055 -1308038.639 -21747865.542 10 0 60997 74700.00000 0 -11347748.137 -3312366.640 -22576223.248 10 0 60997 75600.00000 0 -9581240.922 -5505354.332 -22964909.608 10 0 60997 76500.00000 0 -7966519.435 -7836918.791 -22906430.044 10 0 60997 77400.00000 0 -6542560.604 -10249150.374 -22402015.464 10 0 60997 78300.00000 0 -5337455.080 -12678532.233 -21461591.044 10 0 60997 79200.00000 0 -4367405.200 -15058406.500 -20103574.109 10 0 60997 80100.00000 0 -3636238.743 -17321584.004 -18354505.701 10 0 60997 81000.00000 0 -3135457.133 -19402988.446 -16248523.594 10 0 60997 81900.00000 0 -2844814.114 -21242224.674 -13826687.691 10 0 60997 82800.00000 0 -2733398.507 -22785963.968 -11136171.527 10 0 60997 83700.00000 0 -2761173.450 -23990047.125 -8229336.278 10 0 60997 84600.00000 0 -2880905.358 -24821218.130 -5162705.826 10 0 60997 85500.00000 0 -3040399.643 -25258416.870 -1995863.423 10 0 60998 0.00000 0 -3184947.494 -25293577.972 1209707.884 10 0 60998 900.00000 0 -3259879.529 -24931903.595 4391819.910 10 0 60998 1800.00000 0 -3213117.744 -24191600.163 7488781.405 10 0 60998 2700.00000 0 -2997618.023 -23103091.399 10440589.994 10 0 60998 3600.00000 0 -2573599.966 -21707741.559 13190086.934 10 0 60998 4500.00000 0 -1910470.284 -20056143.159 15684054.542 10 0 60998 5400.00000 0 -988358.944 -18206041.160 17874235.655 10 0 60998 6300.00000 0 200796.448 -16219980.272 19718256.374 10 0 60998 7200.00000 0 1652663.733 -14162773.103 21180435.414 10 0 60998 8100.00000 0 3350451.846 -12098893.861 22232465.549 10 0 60998 9000.00000 0 5265372.667 -10089904.995 22853955.044 10 0 60998 9900.00000 0 7357611.103 -8192022.603 23032819.410 10 0 60998 10800.00000 0 9577764.626 -6453920.506 22765516.409 10 0 60998 11700.00000 0 11868694.270 -4914863.087 22057119.864 10 0 60998 12600.00000 0 14167712.074 -3603243.507 20921230.483 10 0 60998 13500.00000 0 16409015.951 -2535587.403 19379724.674 10 0 60998 14400.00000 0 18526272.500 -1716063.105 17462345.088 10 0 60998 15300.00000 0 20455241.592 -1136518.692 15206139.463 10 0 60998 16200.00000 0 22136334.349 -777044.399 12654757.164 10 0 60998 17100.00000 0 23516998.222 -607037.073 9857615.599 10 0 60998 18000.00000 0 24553829.375 -586722.251 6868951.458 10 0 60998 18900.00000 0 25214323.407 -669070.017 3746774.241 10 0 60998 19800.00000 0 25478190.070 -802023.849 551741.832 10 0 60998 20700.00000 0 25338175.586 -930947.996 -2654020.066 10 0 60998 21600.00000 0 24800356.737 -1001189.241 -5808131.398 10 0 60998 22500.00000 0 23883893.135 -960643.528 -8849179.794 10 0 60998 23400.00000 0 22620247.106 -762217.381 -11717926.360 10 0 60998 24300.00000 0 21051903.319 -366078.176 -14358470.632 10 0 60998 25200.00000 0 19230641.685 258403.833 -16719350.793 10 0 60998 26100.00000 0 17215436.218 1131105.800 -18754556.596 10 0 60998 27000.00000 0 15070068.426 2260062.195 -20424434.346 10 0 60998 27900.00000 0 12860556.000 3640882.028 -21696465.623 10 0 60998 28800.00000 0 10652505.219 5256699.316 -22545904.147 10 0 60998 29700.00000 0 8508498.587 7078659.996 -22956258.262 10 0 60998 30600.00000 0 6485627.368 9066925.607 -22919609.751 10 0 60998 31500.00000 0 4633272.324 11172152.040 -22436763.070 10 0 60998 32400.00000 0 2991225.092 13337381.596 -21517222.569 10 0 60998 33300.00000 0 1588227.928 15500269.090 -20178998.674 10 0 60998 34200.00000 0 440991.690 17595548.669 -18448247.428 10 0 60998 35100.00000 0 -446268.537 19557637.948 -16358751.028 10 0 60998 36000.00000 0 -1081762.676 21323270.401 -13951250.089 10 0 60998 36900.00000 0 -1485524.933 22834045.806 -11272641.299 10 0 60998 37800.00000 0 -1688310.587 24038792.193 -8375056.680 10 0 60998 38700.00000 0 -1730038.928 24895640.777 -5314842.962 10 0 60998 39600.00000 0 -1657849.902 25373727.607 -2151461.508 10 0 60998 40500.00000 0 -1523858.091 25454451.469 1053669.378 10 0 60998 41400.00000 0 -1382700.115 25132236.355 4238366.912 10 0 60998 42300.00000 0 -1288979.874 24414767.611 7340887.697 10 0 60998 43200.00000 0 -1294719.964 23322692.981 10301119.728 10 0 60998 44100.00000 0 -1446926.970 21888801.942 13061739.687 10 0 60998 45000.00000 0 -1785373.181 20156718.408 15569313.683 10 0 60998 45900.00000 0 -2340687.936 18179161.768 17775320.949 10 0 60998 46800.00000 0 -3132838.696 16015848.821 19637081.690 10 0 60998 47700.00000 0 -4170065.528 13731123.662 21118572.294 10 0 60998 48600.00000 0 -5448313.944 11391413.406 22191113.275 10 0 60998 49500.00000 0 -6951190.386 9062614.408 22833917.733 10 0 60998 50400.00000 0 -8650443.198 6807516.307 23034490.540 10 0 60998 51300.00000 0 -10506950.376 4683369.408 22788871.047 10 0 60998 52200.00000 0 -12472174.582 2739695.006 22101714.750 10 0 60998 53100.00000 0 -14490026.678 1016428.336 20986211.991 10 0 60998 54000.00000 0 -16499062.038 -457529.681 19463844.550 10 0 60998 54900.00000 0 -18434920.010 -1665292.412 17563983.728 10 0 60998 55800.00000 0 -20232906.294 -2602458.736 15323336.353 10 0 60998 56700.00000 0 -21830611.651 -3277056.031 12785247.988 10 0 60998 57600.00000 0 -23170458.164 -3708957.244 9998875.378 10 0 60998 58500.00000 0 -24202066.592 -3928796.287 7018242.958 10 0 60998 59400.00000 0 -24884345.168 -3976427.221 3901200.746 10 0 60998 60300.00000 0 -25187211.321 -3898992.068 708303.300 10 0 60998 61200.00000 0 -25092872.687 -3748678.978 -2498368.568 10 0 60998 62100.00000 0 -24596612.107 -3580266.016 -5656420.140 10 0 60998 63000.00000 0 -23707042.076 -3448555.318 -8704364.894 10 0 60998 63900.00000 0 -22445816.540 -3405807.457 -11582831.596 10 0 60998 64800.00000 0 -20846811.079 -3499286.132 -14235731.726 10 0 60998 65700.00000 0 -18954805.137 -3769018.811 -16611363.323 10 0 60998 66600.00000 0 -16823721.326 -4245869.853 -18663428.602 10 0 60998 67500.00000 0 -14514495.669 -4950009.317 -20351944.612 10 0 60998 68400.00000 0 -12092668.354 -5889843.715 -21644028.492 10 0 60998 69300.00000 0 -9625796.369 -7061455.204 -22514541.604 10 0 60998 70200.00000 0 -7180796.756 -8448573.892 -22946579.849 10 0 60998 71100.00000 0 -4821331.899 -10023085.247 -22931800.738 10 0 60998 72000.00000 0 -2605346.258 -11746051.686 -22470581.095 10 0 60998 72900.00000 0 -582857.201 -13569205.658 -21572002.798 10 0 60998 73800.00000 0 1205908.451 -15436851.510 -20253667.357 10 0 60998 74700.00000 0 2731955.334 -17288096.164 -18541343.509 10 0 60998 75600.00000 0 3978479.208 -19059314.769 -16468455.357 10 0 60998 76500.00000 0 4941307.107 -20686747.726 -14075421.600 10 0 60998 77400.00000 0 5628801.665 -22109119.905 -11408859.378 10 0 60998 78300.00000 0 6061235.989 -23270172.229 -8520668.875 10 0 60998 79200.00000 0 6269667.674 -24120999.494 -5467017.028 10 0 60998 80100.00000 0 6294361.572 -24622096.703 -2307240.758 10 0 60998 81000.00000 0 6182829.731 -24745028.577 897308.519 10 0 60998 81900.00000 0 5987572.754 -24473652.908 4084456.286 10 0 60998 82800.00000 0 5763619.100 -23804847.250 7192408.869 10 0 60998 83700.00000 0 5565966.881 -22748709.315 10160946.608 10 0 60998 84600.00000 0 5447036.474 -21328223.426 12932583.428 10 0 60998 85500.00000 0 5454241.316 -19578407.561 15453670.850 10 0 60999 0.00000 0 5627778.998 -17544977.108 17675425.722 10 0 60999 900.00000 0 5998735.343 -15282579.896 19554863.915 10 0 60999 1800.00000 0 6587580.616 -12852678.412 21055620.172 10 0 60999 2700.00000 0 7403121.111 -10321162.888 22148643.353 10 0 60999 3600.00000 0 8441950.049 -7755795.952 22812751.711 10 0 60999 4500.00000 0 9688421.391 -5223592.543 23035039.506 10 0 60999 5400.00000 0 11115148.579 -2788242.426 22811127.443 10 0 60999 6300.00000 0 12684008.727 -507680.623 22145252.216 10 0 60999 7200.00000 0 14347611.952 1568094.828 21050193.123 10 0 60999 8100.00000 0 16051176.293 3398868.476 19547036.454 10 0 60999 9000.00000 0 17734731.766 4955640.683 17664781.125 10 0 60999 9900.00000 0 19335563.067 6221589.434 15439791.863 10 0 60999 10800.00000 0 20790790.154 7192520.979 12915109.068 10 0 60999 11700.00000 0 22039979.505 7876790.549 10139627.276 10 0 60999 12600.00000 0 23027676.977 8294696.365 7167156.903 10 0 60999 13500.00000 0 23705755.709 8477372.234 4055386.517 10 0 60999 14400.00000 0 24035479.671 8465225.232 864765.169 10 0 60999 15300.00000 0 23989194.844 8305984.388 -2342673.580 10 0 60999 16200.00000 0 23551575.341 8052443.121 -5504522.816 10 0 60999 17100.00000 0 22720370.283 7759991.494 -8559224.392 10 0 60999 18000.00000 0 21506618.336 7484043.681 -11447277.224 10 0 60999 18900.00000 0 19934319.363 7277470.782 -14112407.119 10 0 60999 19800.00000 0 18039575.765 7188149.140 -16502674.206 10 0 60999 20700.00000 0 15869238.757 7256729.474 -18571495.209 10 0 60999 21600.00000 0 13479115.942 7514722.766 -20278559.770 10 0 60999 22500.00000 0 10931815.161 7982985.254 -21590622.245 10 0 60999 23400.00000 0 8294315.103 8670667.748 -22482153.078 10 0 60999 24300.00000 0 5635364.520 9574674.584 -22935836.942 10 0 60999 25200.00000 0 3022819.015 10679655.693 -22942908.007 10 0 60999 26100.00000 0 521026.774 11958532.507 -22503316.072 10 0 60999 27000.00000 0 -1811627.754 13373535.639 -21625720.767 10 0 60999 27900.00000 0 -3924920.205 14877710.621 -20327314.472 10 0 60999 28800.00000 0 -5778631.799 16416828.049 -18633477.972 10 0 60999 29700.00000 0 -7343968.223 17931617.496 -16577276.181 10 0 60999 30600.00000 0 -8604494.276 19360230.890 -14198804.371 10 0 60999 31500.00000 0 -9556547.145 20640831.456 -11544398.270 10 0 60999 32400.00000 0 -10209113.253 21714199.141 -8665724.028 10 0 60999 33300.00000 0 -10583176.240 22526242.922 -5618766.352 10 0 60999 34200.00000 0 -10710565.765 23030314.427 -2462735.092 10 0 60999 35100.00000 0 -10632357.777 23189225.931 741087.996 10 0 60999 36000.00000 0 -10396895.491 22976888.336 3930539.526 10 0 60999 36900.00000 0 -10057515.975 22379500.902 7043778.432 10 0 60999 37800.00000 0 -9670079.257 21396243.413 10020480.285 10 0 60999 38700.00000 0 -9290404.692 20039442.308 12802999.075 10 0 60999 39600.00000 0 -8971722.827 18334204.255 15337474.451 10 0 60999 40500.00000 0 -8762249.876 16317532.675 17574863.817 10 0 60999 41400.00000 0 -8702986.453 14036963.966 19471880.294 10 0 60999 42300.00000 0 -8825832.593 11548779.808 20991819.545 10 0 60999 43200.00000 0 -9152097.740 8915869.089 22105260.652 10 0 60999 44100.00000 0 -9691467.933 6205327.090 22790628.555 10 0 60999 45000.00000 0 -10441473.547 3485890.153 23034608.063 10 0 60999 45900.00000 0 -11387480.293 825310.584 22832401.963 10 0 60999 46800.00000 0 -12503204.743 -1712221.081 22187828.400 10 0 60999 47700.00000 0 -13751734.039 -4068501.168 21113255.365 10 0 60999 48600.00000 0 -15087008.635 -6193486.142 19629372.869 10 0 60999 49500.00000 0 -16455707.727 -8047125.013 17764806.129 10 0 60999 50400.00000 0 -17799460.021 -9600775.465 15555575.952 10 0 60999 51300.00000 0 -19057288.652 -10838145.205 13044415.306 10 0 60999 52200.00000 0 -20168188.781 -11755719.451 10279953.862 10 0 60999 53100.00000 0 -21073730.189 -12362656.584 7315785.068 10 0 60999 54000.00000 0 -21720575.494 -12680156.189 4209432.867 10 0 60999 54900.00000 0 -22062807.485 -12740325.855 1021237.490 10 0 60999 55800.00000 0 -22063966.463 -12584594.381 -2186818.132 10 0 60999 56700.00000 0 -21698710.254 -12261738.446 -5352318.293 10 0 60999 57600.00000 0 -20954025.178 -11825606.523 -8413636.583 10 0 60999 58500.00000 0 -19829935.047 -11332636.989 -11311145.345 10 0 60999 59400.00000 0 -18339676.541 -10839276.434 -13988387.849 10 0 60999 60300.00000 0 -16509331.959 -10399408.635 -16393189.208 10 0 60999 61200.00000 0 -14376933.518 -10061904.351 -18478683.234 10 0 60999 62100.00000 0 -11991075.902 -9868396.936 -20204234.305 10 0 60999 63000.00000 0 -9409094.672 -9851379.096 -21536235.595 10 0 60999 63900.00000 0 -6694886.650 -10032702.260 -22448767.627 10 0 60999 64800.00000 0 -3916463.423 -10422542.776 -22924104.189 10 0 60999 65700.00000 0 -1143340.287 -11018879.041 -22953055.804 10 0 60999 66600.00000 0 1556130.227 -11807501.854 -22535144.332 10 0 60999 67500.00000 0 4117369.070 -12762557.470 -21678605.718 10 0 60999 68400.00000 0 6482017.024 -13847600.211 -20400221.330 10 0 60999 69300.00000 0 8600115.239 -15017109.807 -18724981.750 10 0 60999 70200.00000 0 10431929.933 -16218409.003 -16685590.179 10 0 60999 71100.00000 0 11949346.497 -17393900.079 -14321815.704 10 0 60999 72000.00000 0 13136776.393 -18483525.508 -11679709.708 10 0 60999 72900.00000 0 13991540.964 -19427348.635 -8810701.263 10 0 60999 73800.00000 0 14523718.340 -20168145.385 -5770589.724 10 0 60999 74700.00000 0 14755462.115 -20653897.623 -2618454.732 10 0 60999 75600.00000 0 14719822.729 -20840083.268 584494.693 10 0 60999 76500.00000 0 14459123.153 -20691666.923 3776109.239 10 0 60999 77400.00000 0 14022958.968 -20184707.652 6894503.203 10 0 60999 78300.00000 0 13465908.391 -19307516.723 9879249.873 10 0 60999 79200.00000 0 12845049.505 -18061317.124 12672545.471 10 0 60999 80100.00000 0 12217389.638 -16460377.500 15220319.598 10 0 60999 81000.00000 0 11637314.983 -14531615.004 17473271.464 10 0 60999 81900.00000 0 11154167.334 -12313683.452 19387812.890 10 0 60999 82800.00000 0 10810049.123 -9855584.310 20926900.914 10 0 60999 83700.00000 0 10637948.191 -7214857.463 22060745.110 10 0 60999 84600.00000 0 10660260.321 -4455425.712 22767377.024 10 0 60999 85500.00000 0 10887771.052 -1645181.011 23033071.589 10 0 61000 0.00000 0 11319139.273 1146588.931 22852612.980 10 0 61000 900.00000 0 11940904.821 3851830.307 22229399.770 10 0 61000 1800.00000 0 12728019.858 6406298.164 21175387.431 10 0 61000 2700.00000 0 13644883.620 8751976.402 19710868.303 10 0 61000 3600.00000 0 14646838.004 10839240.042 17864092.368 10 0 61000 4500.00000 0 15682062.919 12628672.305 15670734.859 10 0 61000 5400.00000 0 16693793.199 14092461.267 13173219.545 10 0 61000 6300.00000 0 17622765.123 15215318.104 10419909.354 10 0 61000 7200.00000 0 18409790.367 15994878.491 7464178.782 10 0 61000 8100.00000 0 18998349.285 16441570.112 4363385.050 10 0 61000 9000.00000 0 19337093.943 16577951.597 1177757.383 10 0 61000 9900.00000 0 19382154.453 16437550.392 -2030774.171 10 0 61000 10800.00000 0 19099149.985 16063248.484 -5199787.384 10 0 61000 11700.00000 0 18464817.841 15505284.268 -8267589.813 10 0 61000 12600.00000 0 17468189.954 14818955.382 -11174429.362 10 0 61000 13500.00000 0 16111265.187 14062120.394 -13863668.762 10 0 61000 14400.00000 0 14409147.226 13292605.924 -16282899.939 10 0 61000 15300.00000 0 12389640.616 12565629.999 -18384975.438 10 0 61000 16200.00000 0 10092320.584 11931351.750 -20128935.850 10 0 61000 17100.00000 0 7567114.734 11432652.093 -21480814.479 10 0 61000 18000.00000 0 4872455.439 11103240.093 -22414303.074 10 0 61000 18900.00000 0 2073079.963 10966165.616 -22911265.493 10 0 61000 19800.00000 0 -762429.878 11032801.388 -22962089.346 10 0 61000 20700.00000 0 -3564265.738 11302337.453 -22565868.992 10 0 61000 21600.00000 0 -6264059.267 11761809.055 -21730416.771 10 0 61000 22500.00000 0 -8797486.118 12386656.278 -20472102.716 10 0 61000 23400.00000 0 -11106699.177 13141791.098 -18815526.455 10 0 61000 24300.00000 0 -13142490.283 13983126.054 -16793028.299 10 0 61000 25200.00000 0 -14866091.237 14859499.183 -14444049.608 10 0 61000 26100.00000 0 -16250540.287 15714913.193 -11814355.565 10 0 61000 27000.00000 0 -17281558.654 16490993.693 -8955136.070 10 0 61000 27900.00000 0 -17957902.424 17129562.148 -5922002.866 10 0 61000 28800.00000 0 -18291177.179 17575214.623 -2773903.017 10 0 61000 29700.00000 0 -18305125.320 17777797.320 428029.643 10 0 61000 30600.00000 0 -18034418.123 17694674.526 3621662.378 10 0 61000 31500.00000 0 -17523005.149 17292693.551 6745067.388 10 0 61000 32400.00000 0 -16822091.918 16549764.205 9737718.240 10 0 61000 33300.00000 0 -15987832.010 15455986.653 12541655.958 10 0 61000 34200.00000 0 -15078831.216 14014280.541 15102602.620 10 0 61000 35100.00000 0 -14153568.805 12240489.065 17371001.706 10 0 61000 36000.00000 0 -13267843.909 10162953.384 19302966.050 10 0 61000 36900.00000 0 -12472353.587 7821574.655 20861116.185 10 0 61000 37800.00000 0 -11810503.310 5266401.882 22015294.041 10 0 61000 38700.00000 0 -11316540.720 2555803.040 22743139.321 10 0 61000 39600.00000 0 -11014090.037 -245706.034 23030518.270 10 0 61000 40500.00000 0 -10915147.917 -3069886.724 22871797.161 10 0 61000 41400.00000 0 -11019582.528 -5847358.025 22269955.411 10 0 61000 42300.00000 0 -11315157.025 -8510227.121 21236535.867 10 0 61000 43200.00000 0 -11778076.967 -10994662.828 19791432.623 10 0 61000 44100.00000 0 -12374039.626 -13243306.594 17962519.387 10 0 61000 45000.00000 0 -13059742.289 -15207421.994 15785124.335 10 0 61000 45900.00000 0 -13784787.387 -16848694.013 13301360.153 10 0 61000 46800.00000 0 -14493905.420 -18140603.477 10559320.803 10 0 61000 47700.00000 0 -15129402.934 -19069319.147 7612159.306 10 0 61000 48600.00000 0 -15633732.767 -19634069.884 4517063.426 10 0 61000 49500.00000 0 -15952078.049 -19846980.851 1334148.473 10 0 61000 50400.00000 0 -16034840.220 -19732380.167 -1874711.421 10 0 61000 51300.00000 0 -15839924.823 -19325604.903 -5047090.624 10 0 61000 52200.00000 0 -15334726.908 -18671356.599 -8121233.844 10 0 61000 53100.00000 0 -14497730.282 -17821675.887 -11037267.745 10 0 61000 54000.00000 0 -13319651.067 -16833622.197 -13738377.670 10 0 61000 54900.00000 0 -11804075.240 -15766757.264 -16171925.403 10 0 61000 55800.00000 0 -9967561.417 -14680539.680 -18290485.039 10 0 61000 56700.00000 0 -7839202.912 -13631741.518 -20052775.875 10 0 61000 57600.00000 0 -5459666.139 -12671997.069 -21424473.394 10 0 61000 58500.00000 0 -2879744.750 -11845587.953 -22378882.089 10 0 61000 59400.00000 0 -158489.451 -11187558.620 -22897456.824 10 0 61000 60300.00000 0 2639008.675 -10722241.910 -22970162.616 10 0 61000 61200.00000 0 5444088.825 -10462256.771 -22595666.067 10 0 61000 62100.00000 0 8187142.098 -10408019.908 -21781355.111 10 0 61000 63000.00000 0 10800274.813 -10547791.216 -20543187.163 10 0 61000 63900.00000 0 13219902.627 -10858250.102 -18905369.195 10 0 61000 64800.00000 0 15389167.686 -11305577.263 -16899876.531 10 0 61000 65700.00000 0 17260078.682 -11846995.081 -14565820.358 10 0 61000 66600.00000 0 18795285.438 -12432700.461 -11948676.874 10 0 61000 67500.00000 0 19969415.229 -13008107.412 -9099393.727 10 0 61000 68400.00000 0 20769916.585 -13516303.763 -6073391.719 10 0 61000 69300.00000 0 21197377.074 -13900617.539 -2929481.836 10 0 61000 70200.00000 0 21265303.767 -14107184.127 271280.850 10 0 61000 71100.00000 0 20999377.569 -14087405.588 3466783.712 10 0 61000 72000.00000 0 20436214.581 -13800198.336 6595060.215 10 0 61000 72900.00000 0 19621688.134 -13213934.497 9595487.298 10 0 61000 73800.00000 0 18608883.181 -12307995.406 12409953.506 10 0 61000 74700.00000 0 17455769.765 -11073872.084 14983975.685 10 0 61000 75600.00000 0 16222693.523 -9515766.526 17267743.398 10 0 61000 76500.00000 0 14969788.326 -7650668.430 19217071.841 10 0 61000 77400.00000 0 13754418.959 -5507903.663 20794245.915 10 0 61000 78300.00000 0 12628760.075 -3128172.473 21968740.333 10 0 61000 79200.00000 0 11637611.706 -562116.267 22717802.951 10 0 61000 80100.00000 0 10816541.638 2131528.924 23026890.927 10 0 61000 81000.00000 0 10190431.388 4888117.453 22889951.904 10 0 61000 81900.00000 0 9772485.872 7639528.803 22309544.996 10 0 61000 82800.00000 0 9563747.823 10316753.039 21296799.019 10 0 61000 83700.00000 0 9553137.314 12852521.585 19871208.153 10 0 61000 84600.00000 0 9718015.097 15183875.776 18060267.953 10 0 61000 85500.00000 0 10025246.833 17254567.680 15898957.483 99